Date,TemperatureHighF,TemperatureAvgF,TemperatureLowF,DewpointHighF,DewpointAvgF,DewpointLowF,HumidityHigh,HumidityAvg,HumidityLow,PressureMaxIn,PressureMinIn,WindSpeedMaxMPH,WindSpeedAvgMPH,GustSpeedMaxMPH,PrecipitationSumIn
2013-3-2,68,60,48,56,53,42,89,77,61,30.26,30.13,9,2,11,0.00
2013-3-3,68,54,41,56,47,34,88,78,66,30.26,30.15,6,2,12,0.00
2013-3-4,67,52,39,57,44,32,90,76,67,30.28,30.17,11,2,11,0.00
2013-3-5,66,52,39,58,46,27,97,79,59,30.27,30.15,10,2,10,0.01
2013-3-6,66,54,43,58,49,36,97,85,67,30.24,30.14,8,2,9,0.08
2013-3-7,64,54,45,60,51,42,98,89,75,30.19,30.06,8,2,9,0.02
2013-3-8,66,56,45,60,51,40,93,81,67,30.14,29.98,15,3,15,0.02
2013-3-9,69,61,56,57,52,48,98,73,56,30.05,29.91,21,4,24,0.15
2013-3-10,69,60,55,58,54,49,98,83,54,30.06,29.92,24,4,24,0.05
2013-3-11,63,58,52,61,55,47,98,93,62,30.13,30.00,13,1,13,0.05
2013-3-12,64,59,50,61,55,44,96,87,69,30.14,30.04,10,1,10,0.00
2013-3-13,67,56,47,60,51,44,95,84,75,30.16,30.05,12,2,12,0.03
2013-3-14,68,58,48,60,55,46,99,90,75,30.15,30.03,11,2,11,0.00
2013-3-15,67,60,55,61,54,29,99,83,32,30.06,29.94,15,3,16,0.01
2013-3-16,61,56,50,57,53,49,99,91,80,30.07,29.94,9,1,9,0.01
2013-3-17,62,53,45,55,49,43,96,88,70,30.12,30.01,10,1,10,0.01
2013-3-18,64,55,44,57,49,42,97,81,60,30.11,30.00,13,2,13,0.00
2013-3-19,68,56,44,58,50,42,97,82,57,30.12,30.01,16,2,16,0.00
2013-3-20,67,58,50,60,54,47,94,87,69,30.16,30.05,8,1,8,0.00
2013-3-21,70,59,53,62,54,49,90,84,71,30.15,30.07,9,2,9,0.00
2013-3-27,58,55,53,58,54,52,99,96,94,30.09,30.07,6,1,8,0.74
2013-3-28,70,59,50,62,55,48,97,88,71,30.10,29.98,11,2,12,0.74
2013-3-29,68,57,49,62,54,46,99,92,77,30.12,30.01,7,1,9,1.82
2013-3-30,65,56,50,62,55,49,99,97,78,30.13,30.03,8,1,9,0.19
2013-3-31,63,54,43,56,50,40,99,90,74,30.11,30.01,10,2,13,0.22
2013-4-1,62,51,40,54,47,36,96,86,71,30.11,30.01,8,2,10,0.00
2013-4-2,60,52,44,55,48,39,96,87,76,30.16,30.06,11,2,12,0.00
2013-4-3,63,54,44,56,49,39,95,84,70,30.19,30.09,9,2,9,0.00
2013-4-4,67,56,48,59,51,41,94,82,66,30.19,30.09,9,2,9,0.00
2013-4-5,67,58,50,61,53,43,97,85,66,30.22,30.11,8,2,9,0.00
2013-4-6,73,60,50,65,56,48,95,87,75,30.23,30.13,8,2,9,0.00
2013-4-7,68,59,51,64,56,46,98,88,78,30.24,30.14,7,2,8,0.00
2013-4-8,67,58,50,62,56,46,98,92,78,30.16,30.04,8,2,9,0.07
2013-4-9,66,57,49,62,55,47,98,92,81,30.16,30.04,8,2,8,0.20
2013-4-10,68,58,49,63,53,45,94,85,72,30.15,30.04,8,2,8,0.20
2013-4-11,73,59,46,65,55,42,97,87,74,30.14,30.02,7,1,7,0.02
2013-4-12,68,59,50,61,56,47,98,90,77,30.06,29.97,7,1,8,0.01
2013-4-13,76,62,52,63,56,49,97,83,55,30.04,29.95,10,2,11,0.01
2013-4-14,71,60,51,65,58,49,98,91,69,30.06,29.94,15,2,16,0.00
2013-4-15,68,59,50,65,57,48,98,91,83,30.15,30.01,8,2,8,0.00
2013-4-16,71,60,50,64,55,44,96,85,74,30.19,30.09,7,2,7,0.00
2013-4-17,71,60,48,66,55,41,95,85,68,30.22,30.13,11,2,11,0.00
2013-4-18,70,59,50,62,56,48,98,88,72,30.20,30.12,9,1,9,0.02
2013-4-19,68,58,47,63,54,39,98,87,73,30.19,30.10,8,2,8,0.02
2013-4-20,71,61,53,64,57,49,94,86,74,30.17,30.09,9,2,9,0.02
2013-4-21,67,59,50,62,55,46,96,87,79,30.14,30.06,9,2,9,0.00
2013-4-22,71,59,50,66,56,47,97,90,81,30.15,30.06,12,2,13,0.01
2013-4-23,72,61,50,64,57,48,97,86,68,30.15,30.06,12,2,12,0.01
2013-4-24,70,61,53,67,58,50,98,92,82,30.17,30.08,10,1,10,0.01
2013-4-25,71,60,51,65,57,50,96,89,76,30.16,30.05,9,2,9,0.00
2013-4-26,70,58,48,63,53,43,93,84,75,30.12,30.04,10,2,10,0.00
2013-4-27,71,59,46,61,52,40,90,79,66,30.15,30.03,10,2,10,0.00
2013-4-28,69,60,52,63,56,46,96,85,74,30.12,30.01,9,2,9,0.00
2013-4-29,72,65,54,65,59,50,91,81,72,30.08,29.99,12,2,15,0.00
2013-4-30,67,60,52,64,57,49,97,91,79,30.12,30.03,6,1,6,0.11
2013-5-1,70,60,51,63,58,49,97,91,76,30.15,30.07,7,1,10,0.00
2013-5-2,70,60,53,64,57,49,97,90,77,30.17,30.09,8,2,9,0.00
2013-5-3,68,60,50,62,56,45,94,87,79,30.16,30.06,7,1,8,0.00
2013-5-4,70,60,50,60,54,44,93,82,70,30.10,29.99,11,2,11,0.00
2013-5-5,74,61,51,63,57,48,97,86,60,30.04,29.91,16,2,17,0.06
2013-5-6,70,62,56,65,61,55,99,96,78,30.04,29.93,10,1,10,0.44
2013-5-7,68,60,52,65,58,50,99,94,75,30.07,29.97,8,1,8,0.00
2013-5-8,70,62,55,66,60,52,99,92,80,30.10,30.01,10,1,10,0.00
2013-5-9,72,62,52,64,58,49,98,90,70,30.16,30.04,8,2,8,0.00
2013-5-10,72,63,54,66,59,50,95,88,77,30.19,30.09,10,2,10,0.00
2013-5-11,69,62,55,66,60,53,99,93,83,30.16,30.06,8,1,8,0.02
2013-5-12,69,62,56,66,61,54,99,96,86,30.15,30.05,6,1,6,0.17
2013-5-13,68,62,55,67,61,54,99,98,91,30.13,30.05,7,1,7,0.73
2013-5-14,72,64,55,67,61,51,99,91,83,30.15,30.08,11,1,11,0.73
2013-5-15,71,61,51,66,58,46,97,88,76,30.20,30.11,9,1,11,0.00
2013-5-16,71,61,51,64,57,48,96,88,74,30.18,30.08,8,1,8,0.00
2013-5-17,68,60,52,62,57,50,96,90,79,30.13,30.04,8,1,8,0.14
2013-5-18,69,60,52,64,57,50,99,92,80,30.11,30.02,9,2,9,0.17
2013-5-19,67,58,52,63,57,50,99,95,82,30.08,29.96,9,1,9,0.12
2013-5-20,69,58,50,63,56,48,99,93,81,30.06,29.98,14,2,14,0.15
2013-5-21,71,62,54,66,59,52,99,92,68,30.08,29.99,13,2,15,0.15
2013-5-22,70,61,53,65,58,51,99,90,73,30.12,30.02,7,1,7,0.49
2013-5-23,74,64,54,68,60,52,98,89,78,30.12,30.01,12,2,12,0.49
2013-5-24,74,64,54,68,60,52,98,90,76,30.11,30.02,11,1,13,0.00
2013-5-25,70,62,52,66,60,50,98,91,83,30.11,30.03,8,1,8,0.01
2013-5-26,72,63,54,66,59,52,97,88,77,30.14,30.04,11,2,11,0.01
2013-5-27,69,60,53,63,57,48,98,89,78,30.17,30.07,7,1,7,0.64
2013-5-28,69,61,53,65,59,52,98,93,83,30.19,30.10,8,1,9,0.67
2013-5-29,70,62,55,65,59,52,98,93,83,30.17,30.08,7,1,7,0.08
2013-5-30,70,61,53,66,59,51,98,93,84,30.13,30.02,7,1,7,0.08
2013-5-31,70,61,50,66,59,49,98,93,81,30.13,30.03,6,1,6,0.00
2013-6-1,74,64,51,69,60,48,98,89,76,30.14,30.05,9,1,9,0.00
2013-6-2,75,65,54,69,61,52,97,88,75,30.13,30.06,10,2,10,0.00
2013-6-3,72,62,50,65,58,47,95,88,76,30.14,30.06,8,1,8,0.00
2013-6-4,74,63,51,66,59,49,96,87,70,30.12,30.02,11,1,12,0.00
2013-6-5,73,62,49,66,57,45,97,85,71,30.11,30.01,10,1,10,0.00
2013-6-6,69,61,50,63,57,47,94,88,78,30.12,30.00,7,1,8,0.00
2013-6-7,71,62,53,64,58,49,95,87,77,30.10,30.01,8,1,9,0.00
2013-6-8,69,62,53,64,58,51,97,88,79,30.13,30.03,8,1,10,0.00
2013-6-9,68,62,54,64,59,50,98,91,84,30.14,30.08,6,1,6,0.00
2013-6-10,70,61,51,65,58,48,97,90,80,30.13,30.05,8,1,8,0.00
2013-6-11,72,61,52,66,58,50,97,91,76,30.11,30.04,7,1,7,0.00
2013-6-12,72,62,49,66,58,45,97,86,73,30.14,30.05,9,1,9,0.00
2013-6-13,74,63,51,66,59,49,96,86,75,30.15,30.08,12,1,12,0.00
2013-6-14,70,62,54,64,58,51,93,86,78,30.14,30.03,8,1,8,0.00
2013-6-15,72,61,50,64,56,44,97,85,72,30.09,29.99,10,1,10,0.02
2013-6-16,72,62,51,64,57,48,93,84,74,30.09,30.01,11,1,11,0.02
2013-6-17,70,62,53,65,58,50,96,87,77,30.15,30.04,8,0,8,0.00
2013-6-18,70,62,51,65,58,48,96,87,76,30.12,30.05,0,0,0,0.00
2013-6-19,69,63,56,64,58,52,92,86,75,30.12,30.06,0,0,0,0.00
2013-6-20,68,60,50,64,58,47,99,91,78,30.13,30.05,0,0,0,0.27
2013-6-21,69,62,55,64,61,54,99,95,82,30.12,30.03,0,0,0,0.19
2013-6-22,68,62,55,64,60,52,99,94,84,30.16,30.04,0,0,0,0.01
2013-6-23,73,62,50,67,59,48,97,89,78,30.17,30.09,8,1,9,0.01
2013-6-24,73,62,54,64,58,49,98,87,70,30.15,30.08,10,1,10,0.01
2013-6-25,69,61,50,65,58,47,99,92,83,30.15,30.08,8,1,8,0.84
2013-6-26,72,63,55,67,61,52,99,94,82,30.13,30.03,10,1,10,0.97
2013-6-27,71,61,50,65,56,45,94,84,76,30.09,30.01,9,1,10,0.00
2013-6-28,70,60,50,65,57,48,99,93,80,30.08,30.01,8,1,8,0.55
2013-6-29,69,61,51,65,58,49,98,91,81,30.09,30.00,8,1,8,0.55
2013-6-30,74,63,53,67,59,50,97,88,72,30.09,30.01,8,1,8,0.02
2013-7-1,73,61,48,66,57,43,96,85,76,30.09,30.00,9,1,10,0.02
2013-7-2,70,61,49,66,58,46,98,90,76,30.06,29.97,9,1,9,0.04
2013-7-3,69,62,55,64,59,54,99,92,77,30.06,29.99,6,1,8,0.05
2013-7-4,67,61,54,64,59,52,98,93,86,30.11,30.02,6,1,6,0.07
2013-7-5,68,61,52,66,59,50,98,93,83,30.11,30.01,8,1,8,0.01
2013-7-6,69,61,53,65,58,50,93,88,81,30.10,30.03,7,1,7,0.01
2013-7-7,73,63,56,68,60,50,99,90,73,30.08,29.96,8,1,8,0.04
2013-7-8,74,64,55,67,61,52,99,89,76,30.10,29.97,7,1,8,0.01
2013-7-9,76,64,52,67,59,50,94,84,68,30.17,30.05,10,2,10,0.01
2013-7-10,74,63,52,65,59,50,96,86,71,30.17,30.09,8,1,8,0.00
2013-7-11,74,63,51,65,58,47,95,85,71,30.14,30.04,8,1,10,0.00
2013-7-12,73,62,52,66,58,46,97,84,68,30.10,30.02,9,1,9,0.00
2013-7-13,72,61,49,64,56,42,93,83,71,30.07,29.99,9,1,9,0.00
2013-7-14,72,62,51,62,55,43,97,80,60,30.05,29.98,8,1,8,0.00
2013-7-15,68,61,53,64,59,51,98,91,81,30.08,29.99,10,1,10,0.01
2013-7-16,68,62,54,63,59,52,97,90,82,30.07,29.99,6,1,7,0.01
2013-7-17,69,62,56,63,59,53,97,88,78,30.07,30.00,8,1,8,0.00
2013-7-18,72,62,55,66,59,50,96,89,72,30.12,30.02,8,1,8,0.01
2013-7-19,71,62,54,66,59,50,98,89,78,30.15,30.05,9,1,9,0.01
2013-7-20,69,60,50,64,57,46,98,90,77,30.14,30.05,9,2,9,0.01
2013-7-21,73,63,53,66,58,48,93,85,73,30.11,30.01,9,2,11,0.01
2013-7-22,72,65,57,68,63,55,99,94,88,30.07,29.99,6,0,7,0.03
2013-7-23,70,65,58,69,64,57,99,96,91,30.07,30.00,5,0,6,0.07
2013-7-24,74,64,57,68,61,53,98,91,77,30.06,29.96,8,1,8,0.07
2013-7-25,72,62,51,65,59,50,97,90,78,30.04,29.96,8,0,9,0.00
2013-7-26,70,63,52,65,59,49,97,88,80,30.10,30.00,0,0,0,0.00
2013-7-27,74,63,50,67,58,46,90,83,71,30.10,29.99,11,1,11,0.00